period_start,C,m1,H,J0,J1,J2,J3,J4,J5,JA,JB,JC,JD,JJ,JK,JN,#
2018-05-24 00:03:07,0.01,1.28,0.00,31.10,34.15,36.70,13.53,46.28,1014.73,1995.80,2854.98,2702.99,3097.48,600.24,579.35,37.22,0000 0000 0000 0000 000000
2018-05-24 00:08:08,0.03,1.29,0.00,31.13,34.16,36.72,13.47,46.42,1014.78,1995.60,2854.18,2702.37,3097.00,600.01,578.97,37.27,0000 0000 0000 0000 000000
2018-05-24 00:13:09,0.01,1.29,0.00,31.15,34.18,36.74,13.50,46.30,1014.73,1995.41,2853.72,2702.00,3096.40,600.18,579.18,37.32,0000 0000 0000 0000 000000
2018-05-24 00:18:11,0.00,1.29,0.00,31.16,34.20,36.75,13.50,46.32,1014.76,1995.18,2853.00,2701.64,3095.98,599.92,578.82,37.37,0000 0000 0000 0000 000000
2018-05-24 00:23:12,0.04,1.29,0.00,31.19,34.21,36.77,13.45,46.32,1014.81,1995.05,2852.13,2701.02,3095.20,599.70,578.69,37.42,0000 0000 0000 0000 000000
2018-05-24 00:28:13,0.04,1.29,0.00,31.24,34.22,36.78,13.56,46.36,1014.68,1995.01,2851.34,2700.51,3094.83,600.04,578.83,37.47,0000 0000 0000 0000 000000
2018-05-24 00:33:14,0.02,1.29,0.00,31.26,34.25,36.80,13.44,46.35,1014.67,1995.00,2850.82,2700.01,3094.10,599.75,578.65,37.52,0000 0000 0000 0000 000000
2018-05-24 00:38:16,0.05,1.29,0.00,31.27,34.26,36.81,13.42,46.33,1014.74,1995.00,2849.99,2699.41,3093.49,599.73,578.45,37.57,0000 0000 0000 0000 000000
2018-05-24 00:43:17,0.02,1.30,0.00,31.29,34.28,36.83,13.42,46.23,1014.70,1995.00,2849.24,2699.01,3093.00,600.21,578.92,37.62,0000 0000 0000 0000 000000
2018-05-24 00:48:19,0.04,1.30,0.00,31.32,34.30,36.86,13.50,46.38,1014.67,1995.00,2848.69,2698.71,3092.48,599.66,578.32,37.67,0000 0000 0000 0000 000000
2018-05-24 00:53:20,0.02,1.30,0.00,31.35,34.32,36.87,13.49,46.22,1014.68,1994.99,2847.96,2698.03,3091.95,600.30,579.06,37.73,0000 0000 0000 0000 000000
2018-05-24 00:58:21,0.05,1.30,0.00,31.38,34.34,36.88,13.50,46.38,1014.66,1994.98,2847.14,2697.61,3091.19,600.20,578.76,37.78,0000 0000 0000 0000 000000
2018-05-24 01:03:23,0.02,1.30,0.00,31.40,34.36,36.92,13.52,46.41,1014.66,1994.96,2846.51,2697.02,3090.85,600.43,578.84,37.83,0000 0000 0000 0000 000000
2018-05-24 01:08:24,0.02,1.31,0.00,31.42,34.38,36.94,13.48,46.23,1014.66,1994.90,2845.95,2696.73,3090.10,600.09,578.51,37.88,0000 0000 0000 0000 000000
2018-05-24 01:13:25,0.02,1.31,0.00,31.46,34.40,36.95,13.45,46.42,1014.67,1994.74,2845.13,2696.05,3089.76,599.86,578.14,37.93,0000 0000 0000 0000 000000
2018-05-24 01:18:26,0.00,1.31,0.00,31.50,34.42,36.97,13.42,46.28,1014.68,1994.41,2844.55,2695.79,3089.04,600.19,578.42,37.98,0000 0000 0000 0000 000000
2018-05-24 01:23:28,0.03,1.31,0.00,31.52,34.45,37.00,13.45,46.34,1014.71,1994.18,2843.96,2695.07,3088.66,599.75,577.97,38.03,0000 0000 0000 0000 000000
2018-05-24 01:28:29,0.01,1.31,0.00,31.54,34.47,37.02,13.40,46.26,1014.68,1994.06,2843.15,2694.81,3088.01,599.41,577.60,38.08,0000 0000 0000 0000 000000
2018-05-24 01:33:30,0.05,1.31,0.00,31.57,34.50,37.04,13.51,46.27,1014.68,1994.01,2842.46,2694.06,3087.32,600.00,578.21,38.13,0000 0000 0000 0000 000000
2018-05-24 01:38:31,0.01,1.31,0.00,31.60,34.52,37.06,13.45,46.42,1014.68,1994.00,2841.94,2693.81,3086.96,600.34,578.44,38.18,0000 0000 0000 0000 000000
2018-05-24 01:43:33,0.05,1.31,0.00,31.63,34.54,37.08,13.47,46.36,1014.68,1994.00,2841.16,2693.07,3086.19,599.77,577.88,38.23,0000 0000 0000 0000 000000
2018-05-24 01:48:34,0.01,1.32,0.00,31.66,34.57,37.11,13.40,46.28,1014.68,1994.00,2840.67,2692.91,3085.89,599.89,577.89,38.28,0000 0000 0000 0000 000000
2018-05-24 01:53:35,0.05,1.32,0.00,31.69,34.59,37.13,13.36,46.22,1014.68,1993.98,2840.01,2692.12,3085.08,599.63,577.58,38.33,0000 0000 0000 0000 000000
2018-05-24 01:58:36,0.02,1.32,0.00,31.73,34.62,37.17,13.45,46.28,1014.68,1993.93,2839.25,2691.94,3084.78,600.19,577.91,38.38,0000 0000 0000 0000 000000
2018-05-24 02:03:38,0.02,1.32,0.00,31.75,34.64,37.20,13.50,46.42,1014.68,1993.77,2838.72,2691.21,3084.06,600.54,578.32,38.43,0000 0000 0000 0000 000000
2018-05-24 02:08:39,-0.01,1.32,0.00,31.79,34.67,37.21,13.48,46.39,1014.69,1993.25,2837.97,2690.82,3083.39,600.39,578.11,38.48,0000 0000 0000 0000 000000
2018-05-24 02:13:40,0.03,1.32,0.00,31.82,34.70,37.23,13.42,46.33,1014.70,1993.04,2837.13,2690.06,3082.73,599.84,577.62,38.53,0000 0000 0000 0000 000000
2018-05-24 02:18:42,0.05,1.32,0.00,31.85,34.73,37.26,13.38,46.33,1014.68,1993.00,2836.34,2689.45,3082.00,599.58,577.30,38.58,0000 0000 0000 0000 000000
2018-05-24 02:23:43,0.03,1.33,0.00,31.90,34.76,37.29,13.40,46.38,1014.67,1993.00,2835.62,2688.95,3081.28,599.60,576.97,38.63,0000 0000 0000 0000 000000
2018-05-24 02:28:44,0.04,1.33,0.00,31.93,34.80,37.32,13.40,46.22,1014.67,1992.99,2834.88,2688.16,3080.66,600.13,577.60,38.68,0000 0000 0000 0000 000000
2018-05-24 02:33:45,0.01,1.33,0.00,31.98,34.83,37.34,13.51,46.33,1014.66,1992.88,2834.09,2687.83,3080.00,600.16,577.50,38.73,0000 0000 0000 0000 000000
2018-05-24 02:38:46,0.01,1.33,0.00,32.02,34.86,37.38,13.43,46.42,1014.66,1992.51,2833.37,2687.08,3079.31,599.99,577.29,38.79,0000 0000 0000 0000 000000
2018-05-24 02:43:48,0.00,1.33,0.00,32.05,34.90,37.40,13.35,46.27,1014.66,1992.11,2832.76,2686.82,3078.75,600.05,577.36,38.84,0000 0000 0000 0000 000000
2018-05-24 02:48:49,0.04,1.33,0.00,32.10,34.93,37.43,13.41,46.38,1014.67,1992.00,2831.84,2686.04,3077.98,599.85,577.01,38.89,0000 0000 0000 0000 000000
2018-05-24 02:53:51,0.05,1.33,0.00,32.14,34.96,37.47,13.44,46.34,1014.68,1992.00,2831.07,2685.49,3077.17,600.14,577.29,38.94,0000 0000 0000 0000 000000
2018-05-24 02:58:52,0.03,1.34,0.00,32.19,35.00,37.49,13.47,46.33,1014.73,1991.99,2830.28,2684.98,3076.65,600.29,577.33,38.99,0000 0000 0000 0000 000000
2018-05-24 03:03:53,0.04,1.34,0.00,32.23,35.03,37.51,13.42,46.24,1014.80,1991.96,2829.59,2684.26,3075.99,600.06,577.02,39.04,0000 0000 0000 0000 000000
2018-05-24 03:08:55,0.02,1.34,0.00,32.27,35.07,37.55,13.46,46.46,1014.74,1991.88,2828.94,2683.92,3075.27,600.07,576.89,39.09,0000 0000 0000 0000 000000
2018-05-24 03:13:56,-0.01,1.34,0.00,32.31,35.11,37.60,13.35,46.27,1014.69,1991.25,2828.11,2683.11,3074.69,599.85,576.66,39.14,0000 0000 0000 0000 000000
2018-05-24 03:18:57,0.03,1.34,0.00,32.36,35.14,37.62,13.36,46.41,1014.73,1991.05,2827.22,2682.75,3074.00,600.29,576.88,39.19,0000 0000 0000 0000 000000
2018-05-24 03:23:58,0.05,1.34,0.00,32.40,35.17,37.66,13.42,46.33,1014.74,1991.00,2826.51,2682.03,3073.24,599.97,576.52,39.24,0000 0000 0000 0000 000000
2018-05-24 03:28:59,0.05,1.35,0.00,32.44,35.21,37.69,13.42,46.34,1014.75,1991.00,2825.68,2681.41,3072.69,600.08,576.72,39.29,0000 0000 0000 0000 000000
2018-05-24 03:34:01,0.02,1.35,0.00,32.48,35.24,37.73,13.42,46.36,1014.75,1990.99,2824.90,2680.93,3071.97,600.04,576.56,39.34,0000 0000 0000 0000 000000
2018-05-24 03:39:02,0.05,1.35,0.00,32.51,35.27,37.75,13.37,46.38,1014.77,1990.89,2824.06,2680.18,3071.15,599.86,576.37,39.39,0000 0000 0000 0000 000000
2018-05-24 03:44:03,0.01,1.35,0.00,32.55,35.30,37.78,13.38,46.29,1014.81,1990.62,2823.20,2679.88,3070.80,600.18,576.57,39.44,0000 0000 0000 0000 000000
2018-05-24 03:49:04,0.01,1.35,0.00,32.59,35.33,37.82,13.42,46.16,1014.86,1990.23,2822.52,2679.08,3070.05,600.32,576.67,39.49,0000 0000 0000 0000 000000
2018-05-24 03:54:05,0.01,1.35,0.00,32.64,35.36,37.85,13.31,46.15,1014.97,1990.08,2821.99,2678.83,3069.61,599.66,575.97,39.54,0000 0000 0000 0000 000000
2018-05-24 03:59:07,0.04,1.35,0.00,32.64,35.40,37.90,13.39,46.11,1015.11,1990.00,2821.21,2678.09,3068.98,599.97,576.48,39.59,0000 0000 0000 0000 000000
2018-05-24 04:04:08,0.05,1.36,0.00,32.65,35.43,37.92,13.45,46.33,1015.14,1990.00,2820.54,2677.71,3068.30,600.32,576.63,39.64,0000 0000 0000 0000 000000
2018-05-24 04:09:09,0.03,1.36,0.00,32.69,35.46,37.95,13.36,46.29,1015.15,1989.99,2819.87,2677.03,3067.74,599.82,576.16,39.69,0000 0000 0000 0000 000000
2018-05-24 04:14:10,0.03,1.36,0.00,32.74,35.49,37.99,13.42,46.23,1015.15,1989.91,2819.08,2676.54,3067.02,600.13,576.35,39.75,0000 0000 0000 0000 000000
2018-05-24 04:19:11,0.00,1.36,0.00,32.78,35.52,38.02,13.40,46.25,1015.15,1989.65,2818.42,2676.01,3066.42,599.93,576.15,39.80,0000 0000 0000 0000 000000
2018-05-24 04:24:12,-0.00,1.36,0.00,32.82,35.55,38.05,13.36,46.23,1015.15,1989.12,2817.86,2675.45,3065.90,600.33,576.21,39.85,0000 0000 0000 0000 000000
2018-05-24 04:29:13,0.03,1.36,0.00,32.81,35.58,38.09,13.39,46.27,1015.15,1989.03,2817.04,2674.98,3065.11,600.02,576.02,39.90,0000 0000 0000 0000 000000
2018-05-24 04:34:15,0.05,1.36,0.00,32.84,35.61,38.11,13.37,46.25,1015.15,1989.00,2816.31,2674.35,3064.65,599.76,575.92,39.95,0000 0000 0000 0000 000000
2018-05-24 04:39:16,0.01,1.37,0.00,32.87,35.64,38.14,13.38,46.25,1015.15,1989.00,2815.89,2673.97,3064.01,599.73,575.60,40.00,0000 0000 0000 0000 000000
2018-05-24 04:44:17,0.05,1.37,0.00,32.93,35.67,38.18,13.41,46.27,1015.15,1988.96,2815.11,2673.30,3063.41,600.14,576.00,40.05,0000 0000 0000 0000 000000
2018-05-24 04:49:18,-0.02,1.37,0.00,32.96,35.71,38.22,13.37,46.08,1015.16,1988.69,2814.66,2672.96,3062.89,599.71,575.56,40.10,0000 0000 0000 0000 000000
2018-05-24 04:54:20,0.03,1.37,0.00,33.00,35.74,38.25,13.37,46.21,1015.16,1988.39,2813.98,2672.28,3062.13,599.87,575.62,40.15,0000 0000 0000 0000 000000
2018-05-24 04:59:21,-0.01,1.37,0.00,33.00,35.77,38.27,13.42,46.20,1015.16,1988.10,2813.19,2671.99,3061.82,599.92,575.65,40.20,0000 0000 0000 0000 000000
2018-05-24 05:04:23,0.04,1.37,0.00,33.03,35.80,38.30,13.33,46.08,1015.15,1988.00,2812.62,2671.29,3061.05,599.50,575.28,40.25,0000 0000 0000 0000 000000
2018-05-24 05:09:24,0.02,1.37,0.00,33.06,35.83,38.33,13.37,46.23,1015.16,1988.00,2811.95,2670.94,3060.45,599.93,575.53,40.30,0000 0000 0000 0000 000000
2018-05-24 05:14:25,0.04,1.37,0.00,33.09,35.86,38.36,13.34,46.20,1015.15,1988.00,2811.22,2670.29,3059.99,599.83,575.48,40.35,0000 0000 0000 0000 000000
2018-05-24 05:19:26,0.02,1.38,0.00,33.11,35.89,38.39,13.43,46.29,1015.15,1987.98,2810.71,2669.99,3059.34,600.15,575.64,40.40,0000 0000 0000 0000 000000
2018-05-24 05:24:27,0.03,1.38,0.00,33.12,35.91,38.42,13.42,46.15,1015.16,1987.92,2810.03,2669.40,3058.96,599.96,575.44,40.45,0000 0000 0000 0000 000000
2018-05-24 05:29:28,-0.01,1.38,0.00,33.14,35.94,38.45,13.32,46.13,1015.17,1987.58,2809.47,2668.99,3058.23,600.01,575.53,40.50,0000 0000 0000 0000 000000
2018-05-24 05:34:30,0.00,1.38,0.00,33.20,35.97,38.47,13.45,46.16,1015.18,1987.12,2808.91,2668.36,3057.81,600.37,575.76,40.55,0000 0000 0000 0000 000000
2018-05-24 05:39:31,0.02,1.38,0.00,33.24,36.00,38.50,13.37,46.18,1015.18,1987.02,2808.15,2668.00,3057.08,600.12,575.40,40.60,0000 0000 0000 0000 000000
2018-05-24 05:44:32,0.04,1.38,0.00,33.23,36.03,38.54,13.30,46.13,1015.20,1987.00,2807.72,2667.50,3056.72,599.91,575.06,40.66,0000 0000 0000 0000 000000
2018-05-24 05:49:33,0.02,1.38,0.00,33.24,36.05,38.56,13.36,46.09,1015.18,1987.00,2807.03,2667.02,3056.06,599.94,575.18,40.71,0000 0000 0000 0000 000000
2018-05-24 05:54:35,0.02,1.38,0.00,33.28,36.08,38.59,13.37,46.08,1015.17,1986.99,2806.54,2666.83,3055.87,600.10,575.35,40.76,0000 0000 0000 0000 000000
2018-05-24 05:59:36,0.03,1.39,0.00,33.34,36.11,38.62,13.38,46.12,1015.17,1986.94,2805.99,2666.11,3055.14,599.67,574.78,40.81,0000 0000 0000 0000 000000
2018-05-24 06:04:37,0.01,1.39,0.00,33.34,36.14,38.65,13.34,46.06,1015.16,1986.82,2805.39,2665.94,3054.81,599.78,574.93,40.86,0000 0000 0000 0000 000000
2018-05-24 06:09:39,-0.01,1.39,0.00,33.34,36.16,38.68,13.37,46.17,1015.16,1986.35,2804.83,2665.20,3054.07,599.94,575.11,40.91,0000 0000 0000 0000 000000
2018-05-24 06:14:40,0.02,1.39,0.00,33.37,36.18,38.70,13.32,46.11,1015.16,1986.03,2804.04,2664.86,3053.31,600.10,575.14,40.96,0000 0000 0000 0000 000000
2018-05-24 06:19:41,0.03,1.39,0.00,33.41,36.21,38.73,13.34,46.08,1015.16,1986.00,2803.55,2664.13,3052.99,600.11,575.10,41.01,0000 0000 0000 0000 000000
2018-05-24 06:24:43,0.02,1.39,0.00,33.40,36.23,38.75,13.29,46.09,1015.17,1986.00,2803.00,2663.98,3052.42,599.52,574.66,41.06,0000 0000 0000 0000 000000
2018-05-24 06:29:43,0.04,1.39,0.00,33.43,36.26,38.79,13.39,46.01,1015.17,1986.00,2802.35,2663.44,3051.99,600.19,575.12,41.11,0000 0000 0000 0000 000000
2018-05-24 06:34:45,0.02,1.39,0.00,33.46,36.28,38.82,13.40,46.23,1015.18,1985.99,2801.96,2663.01,3051.50,600.27,575.14,41.16,0000 0000 0000 0000 000000
2018-05-24 06:39:46,0.02,1.39,0.00,33.49,36.30,38.83,13.34,46.05,1015.24,1985.90,2801.20,2662.66,3051.00,599.78,574.59,41.21,0000 0000 0000 0000 000000
2018-05-24 06:44:56,0.01,1.40,0.00,33.49,36.33,38.86,13.49,46.20,1015.53,1985.73,2800.84,2662.04,3050.44,600.64,575.53,41.26,0000 0000 0000 0000 000000
2018-05-24 06:49:57,-0.01,1.40,0.00,33.51,36.35,38.88,13.34,45.97,1015.57,1985.34,2800.09,2661.86,3049.98,600.00,574.97,41.31,0000 0000 0000 0000 000000
2018-05-24 06:54:58,0.03,1.40,0.00,33.55,36.38,38.90,13.45,46.10,1015.53,1985.04,2799.60,2661.12,3049.35,600.35,575.25,41.36,0000 0000 0000 0000 000000
2018-05-24 07:00:00,0.01,1.40,0.00,33.58,36.40,38.92,13.28,46.02,1015.58,1985.00,2798.96,2660.87,3048.92,599.71,574.53,41.41,0000 0000 0000 0000 000000
2018-05-24 07:05:01,0.05,1.40,0.00,33.58,36.43,38.95,13.36,46.14,1015.59,1985.00,2798.24,2660.16,3048.20,599.99,574.87,41.46,0000 0000 0000 0000 000000
2018-05-24 07:10:02,0.00,1.40,0.00,33.61,36.45,38.97,13.34,46.13,1015.63,1985.00,2797.91,2659.98,3047.98,599.64,574.47,41.51,0000 0000 0000 0000 000000
2018-05-24 07:15:03,0.05,1.40,0.00,33.64,36.48,39.00,13.45,46.01,1015.64,1985.00,2797.13,2659.53,3047.38,600.41,575.29,41.57,0000 0000 0000 0000 000000
2018-05-24 07:20:05,0.01,1.40,0.00,33.67,36.50,39.02,13.41,46.19,1015.64,1984.95,2796.80,2659.02,3046.99,600.47,575.15,41.62,0000 0000 0000 0000 000000
2018-05-24 07:25:06,0.03,1.41,0.00,33.68,36.53,39.05,13.42,46.20,1015.64,1984.87,2796.07,2658.80,3046.35,599.84,574.60,41.67,0000 0000 0000 0000 000000
2018-05-24 07:30:07,0.01,1.41,0.00,33.72,36.55,39.07,13.39,46.14,1015.64,1984.73,2795.74,2658.12,3045.99,600.25,574.95,41.72,0000 0000 0000 0000 000000
2018-05-24 07:35:09,-0.01,1.41,0.00,33.76,36.58,39.09,13.34,46.01,1015.64,1984.33,2795.03,2657.90,3045.45,599.68,574.36,41.77,0000 0000 0000 0000 000000
2018-05-24 07:40:10,0.03,1.41,0.00,33.76,36.60,39.12,13.40,46.16,1015.64,1984.12,2794.35,2657.13,3044.76,600.22,574.77,41.82,0000 0000 0000 0000 000000
2018-05-24 07:45:12,0.05,1.41,0.00,33.79,36.63,39.14,13.36,46.08,1015.64,1984.01,2793.11,2656.40,3043.90,599.77,574.36,41.87,0000 0000 0000 0000 000000
2018-05-24 07:50:13,0.07,1.41,0.00,33.82,36.65,39.15,13.32,45.95,1015.64,1984.00,2791.92,2655.57,3042.89,599.99,574.46,41.92,0000 0000 0000 0000 000000
2018-05-24 07:55:14,0.06,1.42,0.00,33.85,36.68,39.18,13.36,46.12,1015.65,1984.00,2790.70,2654.72,3041.97,600.08,574.45,41.97,0000 0000 0000 0000 000000
2018-05-24 08:00:16,0.05,1.42,0.00,33.87,36.70,39.20,13.34,46.03,1015.65,1984.00,2789.70,2654.00,3041.11,599.77,574.26,42.02,0000 0000 0000 0000 000000
2018-05-24 08:05:17,0.05,1.42,0.00,33.90,36.73,39.22,13.32,46.01,1015.64,1983.97,2788.85,2653.26,3040.37,599.95,574.19,42.07,0000 0000 0000 0000 000000
2018-05-24 08:10:19,0.01,1.42,0.00,33.92,36.75,39.24,13.33,46.00,1015.64,1983.88,2788.00,2652.85,3039.92,599.94,574.31,42.12,0000 0000 0000 0000 000000
2018-05-24 08:15:20,0.03,1.43,0.00,33.93,36.77,39.26,13.31,46.14,1015.64,1983.63,2787.04,2652.05,3039.05,599.54,573.82,42.17,0000 0000 0000 0000 000000
2018-05-24 08:20:21,0.03,1.43,0.00,33.95,36.79,39.29,13.33,46.08,1015.64,1983.34,2786.13,2651.54,3038.23,599.72,574.00,42.22,0000 0000 0000 0000 000000
2018-05-24 08:25:23,0.01,1.43,0.00,33.97,36.82,39.32,13.32,46.18,1015.64,1983.05,2785.29,2650.94,3037.60,600.05,574.21,42.27,0000 0000 0000 0000 000000
2018-05-24 08:30:24,0.04,1.43,0.00,33.97,36.84,39.34,13.34,46.08,1015.64,1983.01,2784.56,2650.24,3037.01,600.07,574.25,42.32,0000 0000 0000 0000 000000
2018-05-24 08:35:25,0.02,1.43,0.00,34.00,36.86,39.37,13.32,46.03,1015.65,1983.00,2783.98,2649.97,3036.44,599.96,574.23,42.37,0000 0000 0000 0000 000000
2018-05-24 08:40:27,0.05,1.43,0.00,34.01,36.88,39.38,13.32,46.08,1015.66,1983.00,2783.29,2649.29,3035.99,600.17,574.15,42.42,0000 0000 0000 0000 000000
2018-05-24 08:45:28,0.01,1.44,0.00,34.03,36.90,39.39,13.36,46.02,1015.85,1983.00,2782.94,2649.00,3035.66,599.71,573.92,42.48,0000 0000 0000 0000 000000
2018-05-24 08:50:29,0.04,1.44,0.00,34.05,36.93,39.42,13.35,46.05,1015.77,1982.99,2782.11,2648.59,3035.00,600.14,574.26,42.53,0000 0000 0000 0000 000000
2018-05-24 08:55:31,0.02,1.44,0.00,34.07,36.95,39.45,13.25,46.05,1015.91,1982.87,2781.68,2648.02,3034.35,599.71,573.80,42.58,0000 0000 0000 0000 000000
2018-05-24 09:00:32,-0.01,1.44,0.00,34.08,36.97,39.46,13.30,46.05,1016.10,1982.57,2780.97,2647.81,3033.97,600.07,574.31,42.63,0000 0000 0000 0000 000000
2018-05-24 09:05:34,0.04,1.44,0.00,34.10,36.99,39.48,13.28,46.03,1016.08,1982.35,2780.21,2647.08,3033.27,599.60,573.82,42.68,0000 0000 0000 0000 000000
2018-05-24 09:10:36,-0.00,1.44,0.00,34.12,37.02,39.50,13.36,45.98,1016.10,1982.11,2779.71,2646.82,3032.89,600.02,574.21,42.73,0000 0000 0000 0000 000000
2018-05-24 09:15:37,0.04,1.44,0.00,34.14,37.04,39.51,13.25,46.01,1016.07,1982.01,2779.06,2646.10,3032.15,599.54,573.72,42.78,0000 0000 0000 0000 000000
2018-05-24 09:20:38,0.01,1.44,0.00,34.15,37.06,39.54,13.32,46.00,1015.95,1982.00,2778.66,2645.97,3031.96,599.92,573.98,42.83,0000 0000 0000 0000 000000
2018-05-24 09:25:40,0.05,1.45,0.00,34.16,37.08,39.57,13.29,46.02,1015.86,1982.00,2778.01,2645.27,3031.20,599.81,573.83,42.88,0000 0000 0000 0000 000000
2018-05-24 09:30:41,0.02,1.45,0.00,34.19,37.10,39.57,13.26,45.99,1015.83,1982.00,2777.22,2644.97,3030.75,599.67,573.59,42.93,0000 0000 0000 0000 000000
2018-05-24 09:35:42,0.04,1.45,0.00,34.21,37.13,39.60,13.37,46.08,1015.75,1981.96,2776.62,2644.23,3030.03,599.88,573.67,42.98,0000 0000 0000 0000 000000
2018-05-24 09:40:44,0.02,1.45,0.00,34.24,37.15,39.62,13.34,46.08,1015.74,1981.84,2775.90,2643.88,3029.33,600.08,573.82,43.03,0000 0000 0000 0000 000000
2018-05-24 09:45:45,0.01,1.45,0.00,34.27,37.18,39.64,13.33,46.02,1015.85,1981.58,2775.10,2643.16,3028.85,600.08,573.83,43.08,0000 0000 0000 0000 000000
2018-05-24 09:50:46,0.02,1.45,0.00,34.30,37.20,39.66,13.37,46.00,1016.07,1981.21,2774.18,2642.63,3028.07,599.92,573.74,43.13,0000 0000 0000 0000 000000
2018-05-24 09:55:47,0.06,1.45,0.00,34.32,37.23,39.68,13.35,46.04,1016.12,1981.06,2772.85,2641.75,3027.14,599.98,573.93,43.18,0000 0000 0000 0000 000000
2018-05-24 10:00:49,0.04,1.46,0.00,34.33,37.25,39.70,13.34,46.01,1016.12,1981.00,2771.85,2641.00,3026.16,599.69,573.50,43.23,0000 0000 0000 0000 000000
2018-05-24 10:05:50,0.07,1.46,0.00,34.36,37.28,39.72,13.36,46.11,1016.08,1981.00,2770.76,2640.21,3025.41,600.07,573.71,43.28,0000 0000 0000 0000 000000
2018-05-24 10:10:52,0.04,1.46,0.00,34.40,37.30,39.75,13.38,46.08,1016.08,1981.00,2769.82,2639.64,3024.70,599.80,573.45,43.33,0000 0000 0000 0000 000000
2018-05-24 10:15:53,0.03,1.47,0.00,34.41,37.32,39.77,13.29,46.00,1016.13,1980.99,2769.06,2639.02,3024.02,599.63,573.24,43.39,0000 0000 0000 0000 000000
2018-05-24 10:20:55,0.01,1.47,0.00,34.46,37.35,39.80,13.36,45.87,1016.13,1980.95,2768.68,2638.88,3023.81,600.14,573.69,43.44,0000 0000 0000 0000 000000
2018-05-24 10:25:56,0.03,1.47,0.00,34.49,37.37,39.84,13.37,45.97,1016.13,1980.82,2768.02,2638.12,3023.06,600.17,573.74,43.49,0000 0000 0000 0000 000000
2018-05-24 10:30:57,-0.00,1.47,0.00,34.52,37.39,39.89,13.33,45.95,1016.13,1980.54,2767.41,2637.95,3022.63,600.29,573.69,43.54,0000 0000 0000 0000 000000
2018-05-24 10:35:59,0.01,1.47,0.00,34.55,37.41,39.94,13.29,45.98,1016.13,1980.27,2766.92,2637.31,3022.03,600.38,573.75,43.59,0000 0000 0000 0000 000000
2018-05-24 10:41:00,0.01,1.47,0.00,34.57,37.44,40.00,13.31,45.99,1016.13,1980.08,2766.14,2637.00,3021.79,599.87,573.22,43.64,0000 0000 0000 0000 000000
2018-05-24 10:46:02,0.02,1.47,0.00,34.59,37.46,40.06,13.31,45.89,1016.14,1980.03,2765.87,2636.73,3021.10,600.15,573.46,43.69,0000 0000 0000 0000 000000
2018-05-24 10:51:03,0.03,1.47,0.00,34.60,37.49,40.10,13.34,45.91,1016.14,1980.00,2765.11,2636.05,3020.79,599.75,573.06,43.74,0000 0000 0000 0000 000000
2018-05-24 10:56:04,0.04,1.47,0.00,34.64,37.51,40.15,13.31,45.89,1016.14,1980.00,2764.54,2635.79,3020.07,599.92,573.15,43.79,0000 0000 0000 0000 000000
2018-05-24 11:01:05,0.03,1.48,0.00,34.65,37.54,40.18,13.29,45.85,1016.16,1979.99,2763.97,2635.06,3019.60,600.06,573.34,43.84,0000 0000 0000 0000 000000
2018-05-24 11:06:07,0.02,1.48,0.00,34.65,37.56,40.21,13.32,45.83,1016.26,1979.96,2763.23,2634.93,3019.02,599.94,573.20,43.89,0000 0000 0000 0000 000000
2018-05-24 11:11:08,0.03,1.48,0.00,34.67,37.59,40.25,13.32,45.92,1016.40,1979.91,2762.79,2634.18,3018.60,599.68,572.91,43.94,0000 0000 0000 0000 000000
2018-05-24 11:16:09,-0.01,1.48,0.00,34.65,37.60,40.26,13.36,45.82,1016.50,1979.68,2762.07,2633.99,3018.04,600.03,573.48,43.99,0000 0000 0000 0000 000000
2018-05-24 11:21:11,0.03,1.48,0.00,34.63,37.63,40.27,13.28,45.92,1016.55,1979.27,2761.38,2633.39,3017.59,599.47,572.99,44.04,0000 0000 0000 0000 000000
2018-05-24 11:26:12,-0.00,1.48,0.00,34.61,37.64,40.27,13.36,45.79,1016.61,1979.11,2760.88,2633.01,3017.02,599.91,573.44,44.09,0000 0000 0000 0000 000000
2018-05-24 11:31:14,0.03,1.48,0.00,34.58,37.65,40.26,13.33,45.85,1016.61,1979.05,2760.09,2632.83,3016.73,599.87,573.48,44.14,0000 0000 0000 0000 000000
2018-05-24 11:36:15,0.04,1.49,0.00,34.55,37.67,40.27,13.31,45.75,1016.61,1979.01,2759.48,2632.09,3016.05,599.82,573.57,44.19,0000 0000 0000 0000 000000
2018-05-24 11:41:17,0.06,1.49,0.00,34.51,37.68,40.26,13.33,45.70,1016.62,1979.00,2758.35,2631.50,3015.33,600.03,573.81,44.24,0000 0000 0000 0000 000000
2018-05-24 11:46:18,0.04,1.49,0.00,34.47,37.68,40.26,13.32,45.66,1016.61,1979.00,2757.27,2630.95,3014.68,600.04,573.93,44.30,0000 0000 0000 0000 000000
2018-05-24 11:51:19,0.05,1.49,0.00,34.42,37.68,40.27,13.41,45.90,1016.62,1979.00,2756.14,2630.20,3013.99,600.33,574.33,44.35,0000 0000 0000 0000 000000
2018-05-24 11:56:20,0.04,1.50,0.00,34.36,37.68,40.25,13.36,45.88,1016.61,1978.99,2755.31,2629.94,3013.21,599.73,573.76,44.40,0000 0000 0000 0000 000000
2018-05-24 12:01:21,0.04,1.50,0.00,34.30,37.68,40.24,13.37,45.81,1016.56,1978.99,2754.58,2629.24,3012.97,599.75,574.03,44.45,0000 0000 0000 0000 000000
2018-05-24 12:06:22,0.02,1.50,0.00,34.23,37.68,40.25,13.37,45.88,1016.45,1978.99,2753.98,2629.00,3012.33,599.92,574.07,44.50,0000 0000 0000 0000 000000
2018-05-24 12:11:24,0.02,1.50,0.00,34.15,37.66,40.25,13.36,45.86,1016.35,1978.99,2753.25,2628.91,3012.01,599.75,573.94,44.55,0000 0000 0000 0000 000000
2018-05-24 12:16:25,0.02,1.50,0.00,34.11,37.65,40.25,13.32,45.98,1016.21,1978.99,2752.99,2628.29,3011.94,599.81,574.07,44.60,0000 0000 0000 0000 000000
2018-05-24 12:21:26,0.03,1.50,0.00,34.05,37.64,40.23,13.46,45.91,1016.19,1978.99,2752.45,2628.02,3011.48,600.30,574.61,44.65,0000 0000 0000 0000 000000
2018-05-24 12:26:27,0.01,1.50,0.00,33.99,37.62,40.26,13.43,45.84,1016.16,1978.99,2752.01,2628.00,3011.11,600.05,574.49,44.70,0000 0000 0000 0000 000000
2018-05-24 12:31:29,0.00,1.50,0.00,33.94,37.60,40.26,13.39,45.89,1016.13,1978.99,2751.95,2627.99,3011.00,600.08,574.59,44.75,0000 0000 0000 0000 000000
2018-05-24 12:36:30,0.02,1.50,0.00,33.90,37.58,40.32,13.44,45.98,1016.14,1979.01,2751.47,2627.85,3010.99,600.17,574.78,44.80,0000 0000 0000 0000 000000
2018-05-24 12:41:31,0.03,1.51,0.00,33.86,37.56,40.34,13.40,46.04,1016.14,1979.04,2751.01,2627.27,3010.82,600.03,574.73,44.85,0000 0000 0000 0000 000000
2018-05-24 12:46:33,0.02,1.51,0.00,33.81,37.54,40.33,13.34,45.89,1016.14,1979.15,2750.99,2627.06,3010.39,599.68,574.52,44.90,0000 0000 0000 0000 000000
2018-05-24 12:51:34,0.03,1.51,0.00,33.77,37.51,40.29,13.38,46.02,1016.13,1979.33,2750.84,2627.00,3010.10,599.70,574.56,44.95,0000 0000 0000 0000 000000
2018-05-24 12:56:35,0.05,1.51,0.00,33.73,37.49,40.26,13.47,46.09,1016.13,1979.64,2750.20,2627.00,3010.00,600.45,575.28,45.00,0000 0000 0000 0000 000000